TimeEST,TemperatureF,Dew PointF,Humidity,Sea Level PressureIn,VisibilityMPH,Wind Direction,Wind SpeedMPH,Gust SpeedMPH,PrecipitationIn,Events,Conditions,WindDirDegrees,DateUTC
12:15 AM,37.4,37.4,100,30.41,10.0,Calm,Calm,-,N/A,,Clear,0,2013-01-09 05:15:00
12:35 AM,37.4,37.4,100,30.40,10.0,Calm,Calm,-,N/A,,Clear,0,2013-01-09 05:35:00
1:15 AM,37.4,37.4,100,30.40,10.0,Calm,Calm,-,N/A,,Scattered Clouds,0,2013-01-09 06:15:00
1:55 AM,37.4,37.4,100,30.39,10.0,Calm,Calm,-,N/A,,Clear,0,2013-01-09 06:55:00
2:15 AM,37.4,37.4,100,30.39,10.0,Calm,Calm,-,N/A,,Clear,0,2013-01-09 07:15:00
2:35 AM,37.4,37.4,100,30.39,10.0,Calm,Calm,-,N/A,,Clear,0,2013-01-09 07:35:00
2:55 AM,35.6,35.6,100,30.39,10.0,Calm,Calm,-,N/A,,Clear,0,2013-01-09 07:55:00
3:15 AM,35.6,35.6,100,30.40,10.0,Calm,Calm,-,N/A,,Clear,0,2013-01-09 08:15:00
3:35 AM,37.4,35.6,93,30.40,10.0,Calm,Calm,-,N/A,,Clear,0,2013-01-09 08:35:00
3:55 AM,37.4,37.4,100,30.41,10.0,Calm,Calm,-,N/A,,Mostly Cloudy,0,2013-01-09 08:55:00
4:15 AM,37.4,37.4,100,30.40,10.0,Calm,Calm,-,N/A,,Overcast,0,2013-01-09 09:15:00
4:35 AM,37.4,37.4,100,30.40,10.0,Calm,Calm,-,N/A,,Mostly Cloudy,0,2013-01-09 09:35:00
4:55 AM,37.4,35.6,93,30.39,10.0,Calm,Calm,-,N/A,,Scattered Clouds,0,2013-01-09 09:55:00
5:15 AM,37.4,35.6,93,30.39,10.0,Calm,Calm,-,N/A,,Clear,0,2013-01-09 10:15:00
5:35 AM,37.4,35.6,93,30.39,10.0,Calm,Calm,-,N/A,,Clear,0,2013-01-09 10:35:00
5:55 AM,37.4,35.6,93,30.39,10.0,Calm,Calm,-,N/A,,Clear,0,2013-01-09 10:55:00
6:15 AM,35.6,35.6,100,30.40,10.0,Calm,Calm,-,N/A,,Clear,0,2013-01-09 11:15:00
6:35 AM,35.6,35.6,100,30.40,10.0,Calm,Calm,-,N/A,,Clear,0,2013-01-09 11:35:00
6:55 AM,35.6,35.6,100,30.41,10.0,Calm,Calm,-,N/A,,Clear,0,2013-01-09 11:55:00
7:15 AM,35.6,33.8,93,30.41,10.0,Calm,Calm,-,N/A,,Clear,0,2013-01-09 12:15:00
7:35 AM,35.6,33.8,93,30.42,10.0,Calm,Calm,-,N/A,,Clear,0,2013-01-09 12:35:00
7:55 AM,35.6,35.6,100,30.42,10.0,Calm,Calm,-,N/A,,Clear,0,2013-01-09 12:55:00
8:15 AM,37.4,37.4,100,30.43,10.0,Calm,Calm,-,N/A,,Clear,0,2013-01-09 13:15:00
8:35 AM,41.0,39.2,93,30.43,10.0,Calm,Calm,-,N/A,,Clear,0,2013-01-09 13:35:00
8:55 AM,44.6,42.8,93,30.43,10.0,Calm,Calm,-,N/A,,Clear,0,2013-01-09 13:55:00
9:15 AM,46.4,44.6,93,30.44,10.0,South,3.5,-,N/A,,Clear,170,2013-01-09 14:15:00
9:35 AM,50.0,44.6,82,30.44,10.0,Calm,Calm,-,N/A,,Clear,0,2013-01-09 14:35:00
9:55 AM,53.6,46.4,77,30.43,10.0,Calm,Calm,-,N/A,,Clear,0,2013-01-09 14:55:00
10:15 AM,55.4,48.2,77,30.43,10.0,South,3.5,-,N/A,,Clear,190,2013-01-09 15:15:00
10:35 AM,59.0,51.8,77,30.42,10.0,SW,4.6,-,N/A,,Clear,220,2013-01-09 15:35:00
10:55 AM,60.8,51.8,72,30.41,10.0,WSW,6.9,-,N/A,,Clear,240,2013-01-09 15:55:00
11:15 AM,62.6,53.6,72,30.40,10.0,SW,5.8,-,N/A,,Clear,230,2013-01-09 16:15:00
11:35 AM,62.6,53.6,72,30.40,10.0,WSW,5.8,-,N/A,,Clear,240,2013-01-09 16:35:00
11:55 AM,64.4,53.6,68,30.39,10.0,WSW,6.9,-,N/A,,Clear,250,2013-01-09 16:55:00
12:15 PM,64.4,53.6,68,30.38,10.0,WSW,8.1,-,N/A,,Clear,240,2013-01-09 17:15:00
12:35 PM,66.2,53.6,64,30.37,10.0,WSW,10.4,-,N/A,,Clear,250,2013-01-09 17:35:00
12:55 PM,66.2,51.8,60,30.36,10.0,SSW,9.2,-,N/A,,Clear,210,2013-01-09 17:55:00
1:15 PM,66.2,51.8,60,30.35,10.0,WSW,9.2,-,N/A,,Clear,240,2013-01-09 18:15:00
1:35 PM,66.2,51.8,60,30.35,10.0,SW,9.2,-,N/A,,Clear,230,2013-01-09 18:35:00
1:55 PM,66.2,51.8,60,30.34,10.0,SW,9.2,-,N/A,,Clear,230,2013-01-09 18:55:00
2:15 PM,68.0,51.8,56,30.33,10.0,WSW,8.1,-,N/A,,Clear,240,2013-01-09 19:15:00
2:35 PM,68.0,51.8,56,30.34,10.0,SW,10.4,-,N/A,,Clear,230,2013-01-09 19:35:00
2:55 PM,68.0,51.8,56,30.33,10.0,SW,10.4,-,N/A,,Clear,220,2013-01-09 19:55:00
3:15 PM,66.2,51.8,60,30.35,10.0,SW,8.1,-,N/A,,Clear,230,2013-01-09 20:15:00
3:35 PM,66.2,51.8,60,30.35,10.0,SW,5.8,-,N/A,,Clear,230,2013-01-09 20:35:00
3:55 PM,66.2,51.8,60,30.35,10.0,SW,4.6,-,N/A,,Clear,230,2013-01-09 20:55:00
4:15 PM,66.2,51.8,60,30.35,10.0,SW,8.1,-,N/A,,Clear,230,2013-01-09 21:15:00
4:35 PM,64.4,51.8,64,30.36,10.0,SW,5.8,-,N/A,,Clear,230,2013-01-09 21:35:00
4:55 PM,64.4,51.8,64,30.35,10.0,SSW,5.8,-,N/A,,Clear,210,2013-01-09 21:55:00
5:15 PM,62.6,51.8,68,30.35,10.0,South,4.6,-,N/A,,Clear,190,2013-01-09 22:15:00
5:35 PM,62.6,51.8,68,30.35,10.0,SSW,3.5,-,N/A,,Scattered Clouds,200,2013-01-09 22:35:00
5:55 PM,62.6,53.6,72,30.35,10.0,SSW,4.6,-,N/A,,Mostly Cloudy,210,2013-01-09 22:55:00
6:15 PM,62.6,51.8,68,30.35,10.0,SSW,5.8,-,N/A,,Scattered Clouds,200,2013-01-09 23:15:00
6:35 PM,60.8,53.6,77,30.32,10.0,South,9.2,-,N/A,,Clear,180,2013-01-09 23:35:00
6:55 PM,62.6,53.6,72,30.32,10.0,SSW,6.9,-,N/A,,Clear,210,2013-01-09 23:55:00
7:15 PM,60.8,51.8,72,30.35,10.0,WSW,5.8,-,N/A,,Clear,240,2013-01-10 00:15:00
7:35 PM,60.8,51.8,72,30.35,10.0,SW,3.5,-,N/A,,Clear,230,2013-01-10 00:35:00
7:55 PM,60.8,51.8,72,30.35,10.0,Calm,Calm,-,N/A,,Clear,0,2013-01-10 00:55:00
8:15 PM,60.8,51.8,72,30.35,10.0,SW,3.5,-,N/A,,Clear,220,2013-01-10 01:15:00
8:35 PM,57.2,51.8,82,30.36,10.0,Calm,Calm,-,N/A,,Clear,0,2013-01-10 01:35:00
8:55 PM,57.2,51.8,82,30.36,10.0,SW,3.5,-,N/A,,Clear,220,2013-01-10 01:55:00
9:15 PM,57.2,51.8,82,30.37,10.0,SW,4.6,-,N/A,,Clear,230,2013-01-10 02:15:00
9:35 PM,57.2,51.8,82,30.36,10.0,SW,3.5,-,N/A,,Clear,220,2013-01-10 02:35:00
9:55 PM,57.2,51.8,82,30.36,10.0,SW,3.5,-,N/A,,Clear,220,2013-01-10 02:55:00
10:15 PM,55.4,51.8,88,30.37,10.0,WSW,3.5,-,N/A,,Clear,240,2013-01-10 03:15:00
10:35 PM,53.6,50.0,88,30.37,10.0,SW,3.5,-,N/A,,Clear,230,2013-01-10 03:35:00
10:55 PM,53.6,48.2,82,30.38,10.0,SW,3.5,-,N/A,,Clear,230,2013-01-10 03:55:00
11:15 PM,53.6,50.0,88,30.38,10.0,WSW,4.6,-,N/A,,Clear,240,2013-01-10 04:15:00
11:35 PM,53.6,50.0,88,30.38,10.0,West,3.5,-,N/A,,Clear,260,2013-01-10 04:35:00
11:55 PM,53.6,50.0,88,30.39,10.0,West,3.5,-,N/A,,Clear,260,2013-01-10 04:55:00